Temp
-15 -15 -15 -15 -15 -15 -15 -15 -15 -15 -14 -14 -14 -14 -14 -14 -14 -14 -14 -14 -14 -14 -14 -14 -14 -14 -13 -13 -13 -13 -13 -13 -13 -14 -14 -14 -14 -14 -15 -15 -16 -16 -16 -16 -17 -16 -17 -18 -18 -18 -18 -19 -19 -19
-16 -16 -15 -15 -15 -15 -15 -15 -15 -15 -15 -15 -15 -15 -15 -14 -14 -14 -14 -14 -14 -14 -14 -14 -14 -14 -14 -14 -14 -14 -14 -14 -14 -15 -14 -14 -14 -15 -15 -15 -17 -17 -17 -18 -18 -17 -19 -19 -18 -19 -19 -19 -19 -19
-17 -16 -16 -16 -16 -16 -16 -16 -16 -16 -16 -16 -16 -16 -16 -15 -15 -15 -15 -15 -15 -15 -15 -15 -15 -15 -15 -15 -15 -15 -15 -15 -15 -15 -15 -15 -15 -15 -16 -16 -16 -18 -18 -18 -17 -18 -19 -19 -19 -19 -19 -20 -19 -19
-17 -17 -17 -17 -17 -17 -17 -17 -17 -17 -17 -17 -16 -16 -16 -16 -16 -16 -16 -16 -16 -15 -15 -15 -15 -15 -15 -15 -15 -15 -15 -15 -15 -16 -16 -16 -16 -16 -16 -17 -15 -18 -18 -19 -18 -19 -18 -19 -19 -19 -20 -20 -20 -20
-18 -18 -18 -18 -18 -18 -17 -17 -17 -17 -17 -17 -17 -17 -17 -17 -16 -16 -16 -16 -17 -17 -16 -16 -16 -16 -16 -16 -16 -16 -16 -16 -16 -17 -17 -16 -16 -18 -18 -17 -16 -19 -20 -19 -18 -19 -18 -19 -19 -20 -20 -20 -20 -20
-18 -18 -18 -18 -18 -18 -18 -18 -18 -18 -18 -18 -18 -18 -18 -18 -17 -17 -17 -17 -17 -17 -17 -16 -16 -16 -17 -17 -17 -17 -17 -18 -18 -18 -18 -17 -17 -18 -18 -18 -18 -19 -19 -19 -19 -19 -19 -20 -20 -20 -20 -20 -20 -20
-18 -18 -18 -18 -18 -18 -18 -18 -18 -18 -18 -18 -18 -18 -18 -18 -18 -18 -18 -18 -18 -18 -18 -17 -16 -16 -17 -18 -18 -19 -18 -19 -19 -19 -19 -19 -19 -19 -19 -19 -20 -19 -19 -19 -19 -19 -19 -20 -20 -20 -20 -21 -20 -20
-18 -18 -18 -18 -18 -18 -18 -18 -18 -18 -18 -18 -18 -18 -18 -18 -17 -17 -19 -19 -18 -18 -18 -17 -17 -17 -18 -18 -19 -19 -19 -20 -19 -20 -19 -19 -20 -19 -19 -20 -20 -19 -19 -20 -20 -20 -20 -20 -21 -21 -21 -20 -20 -20
-18 -18 -18 -18 -18 -18 -18 -18 -18 -18 -18 -19 -18 -18 -18 -18 -17 -18 -19 -19 -18 -18 -18 -17 -17 -18 -18 -19 -19 -20 -20 -20 -20 -20 -20 -20 -20 -19 -21 -20 -20 -20 -20 -20 -20 -20 -20 -20 -20 -21 -21 -20 -20 -21
-19 -18 -18 -18 -18 -18 -18 -19 -19 -19 -19 -18 -19 -19 -19 -19 -19 -19 -19 -19 -18 -18 -18 -18 -18 -19 -19 -19 -20 -21 -21 -21 -21 -20 -21 -20 -20 -19 -21 -20 -20 -20 -21 -21 -20 -20 -20 -21 -21 -21 -21 -20 -20 -21
-19 -19 -19 -19 -19 -19 -19 -19 -19 -19 -19 -19 -20 -20 -20 -20 -20 -20 -20 -19 -19 -18 -18 -18 -19 -20 -20 -21 -21 -22 -22 -22 -22 -21 -21 -21 -19 -21 -21 -21 -21 -21 -21 -21 -21 -21 -21 -21 -21 -21 -21 -20 -21 -21
-19 -19 -19 -20 -19 -19 -19 -20 -20 -20 -20 -20 -20 -20 -20 -20 -20 -20 -19 -19 -19 -19 -19 -20 -20 -21 -22 -22 -23 -23 -23 -23 -22 -22 -21 -20 -20 -22 -21 -21 -21 -21 -21 -21 -21 -21 -21 -21 -21 -21 -21 -21 -21 -21
-20 -20 -20 -20 -20 -20 -20 -21 -21 -20 -20 -21 -20 -20 -21 -21 -21 -20 -20 -20 -21 -22 -22 -23 -22 -23 -23 -24 -23 -23 -23 -23 -23 -22 -21 -20 -22 -22 -22 -21 -21 -21 -21 -21 -21 -21 -21 -21 -21 -21 -21 -21 -22 -22
-21 -21 -21 -20 -21 -21 -21 -21 -21 -22 -22 -22 -22 -22 -22 -21 -20 -23 -24 -24 -24 -24 -24 -24 -24 -24 -24 -24 -24 -24 -24 -24 -23 -22 -21 -23 -23 -23 -22 -22 -21 -21 -21 -22 -21 -21 -21 -21 -21 -21 -22 -22 -22 -23
-21 -21 -21 -21 -21 -21 -21 -22 -23 -24 -24 -25 -25 -24 -22 -23 -24 -24 -25 -25 -25 -24 -25 -26 -26 -25 -25 -25 -24 -25 -24 -24 -23 -22 -24 -23 -23 -23 -23 -22 -22 -22 -22 -22 -22 -22 -22 -22 -22 -22 -22 -22 -22 -23
-21 -21 -21 -22 -22 -22 -23 -24 -25 -25 -26 -26 -25 -24 -23 -24 -24 -25 -25 -25 -26 -25 -25 -27 -27 -27 -26 -26 -25 -25 -25 -23 -23 -24 -24 -23 -23 -23 -23 -22 -22 -22 -22 -22 -22 -22 -22 -22 -22 -22 -23 -23 -23 -24
-22 -22 -22 -22 -23 -24 -25 -25 -25 -26 -26 -27 -24 -24 -24 -24 -24 -25 -26 -26 -26 -26 -26 -27 -27 -26 -27 -26 -25 -25 -24 -24 -24 -24 -24 -24 -24 -24 -23 -23 -23 -23 -23 -23 -23 -23 -22 -23 -23 -23 -23 -23 -24 -24
-22 -23 -23 -24 -25 -25 -25 -26 -26 -27 -26 -25 -25 -25 -25 -26 -26 -26 -26 -27 -27 -27 -27 -27 -27 -27 -27 -26 -26 -25 -25 -26 -25 -25 -25 -24 -24 -24 -23 -23 -23 -23 -23 -23 -23 -23 -23 -23 -24 -24 -24 -24 -24 -24
-24 -24 -25 -25 -25 -26 -26 -26 -27 -27 -26 -26 -26 -26 -26 -27 -27 -27 -27 -27 -27 -27 -27 -27 -28 -27 -26 -26 -26 -25 -26 -26 -25 -26 -25 -25 -24 -24 -24 -24 -24 -24 -24 -24 -24 -24 -24 -24 -24 -24 -24 -24 -25 -25
-25 -25 -25 -25 -26 -27 -27 -28 -27 -27 -27 -27 -27 -27 -27 -28 -28 -27 -27 -27 -27 -28 -28 -27 -26 -26 -26 -27 -27 -27 -26 -26 -26 -26 -25 -25 -24 -24 -24 -24 -24 -24 -24 -24 -24 -25 -25 -25 -25 -25 -25 -25 -25 -25
-26 -26 -26 -27 -27 -28 -28 -28 -28 -28 -28 -28 -28 -28 -28 -28 -28 -28 -28 -28 -28 -28 -26 -26 -26 -27 -28 -28 -27 -27 -28 -27 -27 -26 -26 -25 -25 -25 -25 -24 -24 -25 -25 -25 -25 -25 -25 -25 -25 -25 -25 -25 -26 -26
-26 -27 -27 -27 -28 -28 -28 -28 -28 -28 -28 -28 -28 -28 -28 -28 -28 -28 -28 -28 -28 -26 -27 -27 -28 -28 -29 -28 -28 -28 -27 -27 -27 -27 -26 -25 -25 -25 -25 -25 -24 -25 -25 -25 -25 -25 -25 -25 -25 -26 -26 -26 -26 -26
-27 -27 -27 -28 -28 -28 -28 -28 -28 -28 -28 -28 -28 -28 -28 -27 -28 -28 -28 -28 -27 -27 -28 -28 -28 -28 -28 -28 -28 -28 -28 -28 -27 -26 -26 -25 -25 -25 -25 -24 -24 -25 -25 -25 -25 -26 -25 -26 -26 -26 -26 -26 -26 -26
-27 -27 -27 -27 -28 -28 -27 -28 -28 -28 -28 -27 -28 -28 -28 -28 -28 -28 -28 -27 -28 -28 -28 -28 -28 -28 -28 -28 -28 -27 -27 -27 -27 -26 -25 -26 -26 -25 -25 -25 -25 -25 -25 -26 -26 -26 -26 -26 -26 -26 -26 -26 -27 -27
-27 -27 -27 -27 -27 -27 -27 -28 -27 -28 -28 -28 -28 -28 -28 -28 -28 -28 -27 -27 -28 -28 -28 -28 -28 -28 -28 -27 -28 -28 -27 -27 -27 -26 -26 -26 -25 -25 -25 -25 -25 -25 -26 -26 -26 -26 -27 -27 -27 -26 -26 -27 -27 -27
-27 -27 -27 -27 -27 -27 -27 -28 -28 -28 -28 -28 -28 -28 -28 -28 -28 -28 -27 -28 -28 -28 -28 -28 -28 -28 -27 -27 -27 -27 -27 -26 -26 -26 -26 -25 -25 -25 -25 -25 -25 -25 -25 -25 -26 -27 -27 -27 -27 -26 -27 -27 -27 -27
-27 -27 -27 -27 -27 -28 -27 -28 -28 -28 -28 -28 -28 -28 -28 -28 -28 -27 -28 -28 -28 -28 -27 -27 -28 -27 -27 -27 -26 -26 -26 -26 -26 -26 -26 -25 -25 -26 -25 -25 -25 -25 -26 -26 -26 -27 -27 -27 -27 -27 -27 -27 -28 -28
-27 -26 -27 -27 -27 -27 -28 -28 -28 -28 -28 -27 -28 -28 -28 -28 -27 -28 -28 -28 -27 -27 -27 -27 -27 -27 -27 -27 -26 -26 -26 -26 -26 -26 -26 -26 -26 -26 -26 -26 -26 -26 -27 -27 -27 -27 -27 -27 -27 -27 -27 -28 -28 -28
-27 -27 -27 -28 -28 -28 -28 -28 -28 -28 -28 -28 -28 -28 -28 -28 -28 -28 -27 -27 -27 -27 -27 -27 -27 -27 -27 -27 -27 -26 -26 -26 -26 -26 -26 -26 -26 -26 -27 -27 -27 -27 -27 -27 -27 -27 -27 -27 -27 -27 -28 -28 -28 -28
-28 -28 -28 -28 -28 -28 -28 -28 -27 -27 -28 -28 -28 -28 -28 -28 -28 -28 -27 -27 -27 -27 -27 -27 -27 -27 -27 -26 -26 -26 -26 -26 -26 -26 -27 -27 -27 -27 -27 -27 -27 -27 -28 -28 -27 -27 -27 -27 -27 -28 -28 -28 -29 -29
-28 -28 -28 -28 -27 -28 -28 -28 -28 -28 -28 -28 -28 -28 -28 -28 -28 -28 -27 -27 -27 -27 -27 -27 -27 -27 -26 -26 -26 -26 -26 -27 -27 -27 -27 -27 -27 -27 -27 -27 -28 -28 -28 -28 -28 -28 -28 -28 -28 -28 -28 -29 -29 -29
-27 -27 -28 -28 -28 -28 -28 -28 -28 -28 -28 -28 -28 -28 -28 -28 -28 -28 -27 -27 -27 -27 -27 -27 -27 -27 -27 -27 -27 -27 -27 -27 -27 -28 -27 -27 -27 -28 -28 -28 -28 -28 -28 -28 -28 -28 -28 -28 -28 -29 -29 -29 -29 -29
-27 -27 -27 -28 -28 -28 -28 -28 -28 -28 -28 -28 -28 -28 -28 -27 -27 -27 -27 -27 -27 -27 -27 -27 -27 -27 -27 -27 -27 -28 -28 -28 -28 -28 -28 -28 -28 -28 -28 -28 -28 -28 -28 -28 -28 -29 -29 -29 -29 -29 -29 -30 -30 -30
Height
5778 5779 5780 5781 5783 5784 5785 5785 5785 5786 5786 5787 5788 5788 5788 5789 5787 5787 5787 5786 5786 5785 5784 5783 5782 5781 5779 5777 5775 5774 5772 5771 5765 5762 5759 5754 5749 5745 5742 5738 5734 5729 5725 5717 5706 5695 5695 5688 5680 5672 5663 5653 5644 5636
5766 5767 5768 5769 5770 5771 5771 5772 5772 5773 5773 5773 5774 5775 5774 5774 5774 5774 5774 5773 5772 5772 5772 5771 5769 5768 5767 5765 5762 5760 5758 5755 5751 5748 5744 5739 5736 5732 5729 5726 5722 5718 5715 5705 5699 5691 5684 5674 5668 5658 5651 5642 5632 5622
5755 5755 5756 5757 5757 5757 5758 5758 5758 5758 5759 5760 5760 5761 5761 5760 5760 5761 5760 5760 5759 5758 5758 5757 5756 5755 5753 5750 5748 5746 5743 5740 5737 5733 5729 5725 5722 5720 5715 5713 5708 5705 5700 5691 5682 5688 5675 5665 5655 5645 5637 5628 5619 5608
5744 5745 5746 5746 5746 5746 5746 5746 5746 5746 5745 5746 5746 5746 5747 5747 5746 5746 5746 5746 5745 5743 5744 5745 5742 5739 5738 5735 5733 5730 5727 5724 5721 5718 5714 5711 5708 5703 5701 5697 5697 5696 5686 5672 5672 5671 5662 5654 5644 5636 5627 5618 5609 5597
5732 5734 5735 5735 5735 5735 5735 5734 5734 5734 5733 5733 5733 5733 5733 5733 5733 5732 5732 5731 5730 5730 5728 5729 5730 5727 5722 5719 5718 5716 5713 5709 5706 5702 5700 5697 5695 5688 5685 5684 5689 5685 5670 5661 5660 5655 5648 5642 5635 5627 5618 5609 5598 5588
5720 5720 5721 5722 5722 5722 5722 5722 5721 5721 5721 5721 5720 5720 5720 5719 5720 5719 5719 5719 5718 5716 5713 5714 5716 5714 5710 5706 5702 5699 5698 5695 5690 5688 5687 5685 5680 5676 5672 5674 5680 5665 5652 5651 5649 5641 5636 5628 5622 5615 5606 5597 5587 5577
5708 5708 5708 5708 5708 5708 5708 5707 5707 5707 5707 5706 5705 5705 5704 5703 5704 5704 5704 5704 5703 5702 5699 5696 5696 5701 5697 5696 5692 5686 5683 5680 5677 5675 5672 5670 5667 5664 5663 5665 5657 5647 5645 5640 5635 5630 5624 5616 5609 5601 5593 5586 5577 5566
5693 5694 5694 5694 5694 5693 5692 5692 5691 5691 5691 5690 5689 5688 5687 5687 5689 5691 5689 5686 5684 5683 5683 5681 5681 5682 5680 5681 5677 5675 5671 5664 5663 5661 5663 5661 5655 5654 5655 5648 5640 5636 5633 5629 5623 5617 5611 5604 5597 5590 5584 5576 5567 5556
5679 5679 5679 5679 5678 5678 5676 5675 5675 5675 5674 5673 5671 5669 5669 5670 5671 5675 5670 5669 5669 5669 5663 5665 5668 5664 5665 5663 5660 5657 5654 5651 5648 5648 5648 5644 5645 5644 5641 5632 5628 5625 5621 5618 5612 5606 5600 5594 5587 5580 5573 5565 5557 5547
5662 5662 5663 5663 5662 5662 5660 5659 5658 5656 5656 5655 5654 5651 5650 5653 5654 5652 5648 5649 5651 5650 5647 5649 5653 5650 5649 5645 5640 5638 5635 5634 5631 5635 5630 5629 5634 5636 5624 5618 5617 5613 5609 5605 5601 5594 5589 5583 5576 5570 5563 5555 5547 5538
5644 5644 5644 5643 5643 5643 5642 5640 5637 5636 5637 5635 5633 5633 5630 5629 5631 5630 5627 5629 5627 5628 5627 5635 5639 5635 5631 5626 5620 5617 5615 5615 5614 5617 5615 5617 5623 5620 5606 5606 5605 5601 5597 5593 5588 5583 5577 5572 5566 5560 5552 5545 5538 5529
5624 5625 5625 5624 5624 5623 5622 5620 5616 5615 5615 5612 5614 5611 5610 5607 5607 5607 5609 5606 5603 5603 5606 5613 5616 5614 5609 5606 5603 5600 5598 5598 5599 5600 5600 5605 5615 5595 5595 5593 5590 5589 5586 5581 5576 5572 5567 5562 5556 5549 5543 5535 5528 5520
5604 5605 5605 5605 5605 5603 5602 5598 5594 5592 5592 5588 5589 5589 5587 5584 5585 5582 5581 5583 5581 5580 5581 5583 5586 5586 5585 5587 5584 5584 5584 5584 5586 5586 5590 5598 5588 5583 5583 5581 5579 5577 5573 5569 5564 5560 5554 5549 5544 5539 5532 5526 5519 5512
5584 5585 5586 5586 5585 5584 5581 5577 5572 5566 5566 5562 5560 5562 5566 5568 5567 5573 5568 5565 5564 5564 5563 5561 5562 5565 5567 5571 5569 5569 5569 5571 5572 5576 5582 5579 5573 5572 5570 5569 5568 5565 5561 5557 5553 5548 5543 5538 5534 5528 5523 5517 5510 5503
5563 5565 5567 5568 5565 5562 5560 5556 5550 5543 5539 5537 5538 5541 5551 5557 5557 5555 5553 5551 5550 5550 5546 5547 5548 5550 5550 5551 5554 5555 5557 5560 5563 5568 5564 5560 5562 5558 5558 5558 5556 5553 5549 5545 5541 5538 5533 5528 5523 5518 5513 5507 5501 5495
5541 5546 5550 5546 5543 5541 5538 5535 5531 5526 5516 5515 5518 5530 5537 5543 5548 5544 5542 5540 5538 5537 5534 5533 5533 5531 5531 5535 5539 5543 5546 5551 5559 5554 5547 5550 5549 5545 5545 5545 5543 5541 5538 5534 5530 5527 5522 5518 5513 5508 5503 5497 5492 5487
5519 5530 5527 5524 5522 5520 5518 5514 5510 5505 5501 5495 5511 5518 5523 5529 5531 5529 5528 5526 5525 5526 5525 5522 5521 5522 5522 5521 5525 5528 5535 5544 5543 5540 5535 5537 5536 5535 5534 5533 5531 5529 5526 5522 5519 5515 5511 5507 5502 5497 5493 5488 5483 5479
5503 5506 5505 5503 5500 5500 5499 5495 5490 5486 5485 5491 5497 5505 5506 5510 5511 5511 5512 5512 5511 5511 5510 5508 5507 5503 5508 5509 5513 5522 5527 5528 5526 5523 5522 5523 5524 5523 5523 5522 5520 5517 5514 5511 5507 5503 5500 5496 5492 5488 5483 5479 5475 5470
5481 5483 5484 5484 5482 5480 5478 5477 5475 5470 5473 5479 5483 5488 5490 5492 5494 5495 5496 5497 5496 5495 5493 5493 5491 5491 5497 5501 5504 5505 5508 5510 5509 5509 5510 5510 5511 5511 5511 5509 5508 5506 5503 5499 5495 5492 5489 5486 5482 5478 5474 5471 5467 5463
5460 5463 5465 5466 5464 5461 5459 5457 5457 5457 5459 5467 5472 5475 5475 5478 5481 5480 5481 5481 5479 5478 5478 5476 5479 5481 5482 5486 5487 5486 5487 5489 5491 5495 5497 5499 5499 5499 5499 5497 5496 5493 5490 5487 5484 5482 5479 5476 5472 5469 5466 5463 5459 5456
5440 5447 5446 5448 5447 5446 5446 5444 5445 5446 5451 5455 5463 5462 5463 5465 5465 5466 5467 5467 5463 5463 5464 5468 5466 5468 5469 5469 5471 5471 5471 5473 5477 5479 5484 5486 5487 5487 5485 5484 5484 5482 5479 5477 5474 5471 5469 5465 5462 5459 5457 5455 5452 5449
5428 5428 5431 5432 5432 5433 5433 5434 5438 5441 5443 5448 5451 5452 5453 5455 5455 5455 5455 5451 5451 5457 5457 5456 5454 5453 5452 5451 5453 5453 5455 5457 5462 5468 5470 5473 5474 5474 5474 5474 5472 5470 5468 5466 5464 5461 5459 5456 5453 5450 5448 5446 5444 5442
5411 5415 5419 5421 5422 5424 5424 5428 5429 5433 5435 5440 5441 5441 5443 5444 5445 5444 5441 5443 5446 5447 5444 5442 5440 5438 5435 5437 5438 5442 5443 5441 5444 5451 5456 5459 5460 5462 5463 5462 5461 5459 5457 5454 5452 5450 5448 5446 5443 5441 5440 5438 5437 5435
5404 5407 5409 5411 5413 5413 5413 5416 5422 5425 5428 5430 5431 5432 5434 5435 5435 5433 5435 5438 5439 5436 5432 5429 5427 5426 5426 5427 5427 5427 5429 5429 5430 5435 5441 5445 5448 5450 5450 5450 5449 5446 5444 5442 5441 5439 5438 5436 5435 5433 5432 5430 5430 5428
5395 5397 5399 5399 5400 5403 5407 5411 5415 5416 5419 5422 5424 5424 5424 5424 5424 5425 5427 5429 5427 5423 5420 5417 5416 5416 5416 5417 5415 5414 5415 5418 5419 5424 5430 5433 5436 5437 5438 5438 5437 5435 5433 5432 5430 5429 5428 5427 5426 5425 5424 5423 5422 5422
5384 5386 5388 5389 5394 5399 5402 5406 5409 5409 5411 5414 5415 5417 5417 5417 5417 5418 5419 5417 5414 5412 5409 5406 5404 5404 5405 5405 5404 5404 5406 5408 5413 5417 5421 5423 5425 5426 5427 5426 5426 5424 5423 5422 5421 5420 5419 5419 5418 5417 5416 5415 5415 5415
5375 5376 5380 5387 5391 5396 5398 5401 5403 5404 5406 5408 5409 5410 5410 5409 5410 5411 5409 5406 5404 5400 5399 5399 5397 5397 5398 5397 5397 5398 5400 5403 5406 5410 5411 5414 5415 5415 5415 5415 5415 5414 5414 5413 5412 5412 5411 5411 5410 5409 5408 5408 5408 5408
5371 5375 5379 5384 5386 5389 5390 5394 5396 5398 5399 5401 5402 5403 5401 5401 5401 5400 5398 5397 5396 5395 5395 5394 5393 5393 5393 5393 5393 5394 5396 5398 5400 5402 5403 5404 5404 5404 5403 5403 5403 5403 5403 5403 5403 5403 5403 5402 5401 5400 5400 5400 5401 5400
5371 5373 5376 5379 5381 5384 5386 5388 5390 5392 5393 5394 5394 5394 5393 5393 5392 5391 5390 5390 5390 5390 5390 5391 5390 5389 5389 5389 5390 5391 5391 5392 5393 5393 5393 5392 5392 5391 5391 5392 5393 5393 5394 5395 5395 5395 5394 5394 5393 5393 5392 5392 5392 5393
5368 5370 5372 5375 5377 5380 5383 5384 5385 5385 5385 5386 5387 5387 5386 5385 5385 5384 5384 5384 5384 5384 5384 5384 5384 5384 5384 5384 5384 5384 5384 5384 5383 5382 5381 5381 5382 5383 5383 5384 5385 5385 5386 5386 5386 5386 5386 5385 5385 5384 5384 5384 5384 5384
5365 5366 5369 5371 5373 5376 5377 5378 5378 5378 5378 5378 5378 5379 5379 5379 5379 5379 5379 5380 5379 5379 5379 5379 5378 5378 5377 5376 5376 5375 5375 5375 5374 5374 5374 5375 5375 5376 5376 5376 5376 5377 5377 5377 5377 5377 5377 5376 5376 5376 5375 5375 5375 5375
5361 5363 5365 5367 5369 5370 5371 5372 5372 5372 5373 5373 5373 5373 5373 5373 5373 5374 5374 5374 5373 5373 5372 5372 5371 5370 5369 5368 5367 5367 5367 5367 5367 5368 5368 5368 5368 5368 5368 5368 5368 5368 5368 5368 5368 5367 5367 5367 5367 5366 5366 5366 5366 5366
5358 5360 5362 5363 5364 5366 5366 5367 5368 5368 5368 5368 5368 5367 5367 5367 5367 5368 5367 5367 5366 5365 5364 5363 5363 5362 5361 5361 5360 5360 5361 5361 5360 5360 5360 5360 5360 5359 5359 5359 5358 5358 5358 5358 5357 5357 5357 5356 5356 5356 5356 5356 5356 5357
Wind_Speed
38 39 40 41 42 44 45 46 47 47 47 46 45 45 44 43 43 42 41 40 40 41 41 41 41 41 42 43 44 44 46 47 51 52 53 54 54 53 51 50 48 50 51 56 58 61 56 55 56 60 64 64 65 66
41 41 42 43 44 44 44 45 46 48 48 49 48 48 48 48 48 48 47 48 48 48 47 46 46 46 46 46 48 49 49 50 51 52 54 54 53 52 52 54 51 51 49 55 55 58 51 56 58 61 62 63 64 68
37 39 41 42 43 43 43 43 44 46 46 46 47 47 46 48 48 47 47 47 49 50 50 50 51 51 51 51 51 53 51 49 51 53 55 56 55 55 56 57 58 52 51 56 60 50 52 58 59 62 62 62 65 70
29 29 30 32 34 35 37 39 41 42 43 43 43 44 44 45 47 47 49 50 51 53 51 49 50 51 51 51 51 51 52 52 51 51 52 54 56 60 60 59 62 53 54 60 57 51 53 54 59 61 59 62 68 69
35 36 37 37 37 38 39 39 40 40 40 40 39 39 40 40 41 43 43 43 44 45 47 46 45 46 50 52 51 51 51 52 50 50 53 57 58 58 59 61 54 50 57 58 55 52 52 54 59 57 59 64 64 66
40 38 38 39 39 39 40 41 41 42 42 42 42 42 44 45 46 47 47 46 46 47 50 49 46 44 45 46 48 50 48 46 50 50 52 56 59 58 55 55 41 38 54 50 48 49 53 58 57 57 59 59 62 64
44 44 44 43 43 45 45 45 44 45 48 50 52 52 53 55 54 55 55 53 51 50 53 56 56 51 47 43 45 49 52 51 47 47 49 45 43 48 50 40 36 46 46 47 47 51 53 56 55 54 56 59 60 64
48 49 48 46 46 48 50 50 48 47 49 52 55 56 57 58 57 57 56 57 59 60 60 63 63 61 55 48 47 47 49 52 52 48 50 50 47 44 35 33 42 46 45 43 45 45 47 50 51 53 55 56 58 61
54 53 52 51 51 54 54 52 52 54 56 59 60 62 64 63 64 61 60 62 62 63 66 66 64 64 60 55 53 50 49 50 53 53 49 48 45 43 34 40 44 42 40 38 44 48 49 50 50 50 52 54 56 57
59 57 57 58 59 58 57 57 59 61 63 65 65 67 69 67 65 67 70 69 68 69 71 71 67 65 59 60 59 55 52 53 54 52 51 51 48 36 38 44 42 43 43 45 48 48 48 47 45 47 50 51 54 55
65 64 62 61 62 61 60 63 65 66 67 68 67 67 70 72 72 74 76 78 80 80 79 74 67 63 59 58 58 56 53 54 55 53 53 51 46 37 47 45 44 45 43 43 44 44 44 44 45 47 49 50 52 53
65 64 62 62 62 62 64 66 67 69 69 70 70 72 74 76 77 78 80 82 83 81 78 70 63 59 56 51 51 52 52 52 53 52 50 49 37 41 42 39 42 41 41 41 40 42 43 43 43 45 48 49 50 50
62 61 61 62 64 66 66 66 68 70 72 74 75 75 75 74 76 82 83 78 72 64 61 63 58 54 51 47 51 52 52 52 50 49 46 38 32 35 36 41 40 39 40 39 41 43 43 42 43 46 47 49 48 47
58 61 63 64 64 65 66 69 73 74 73 73 71 71 70 74 75 58 50 44 44 46 50 52 48 47 49 48 48 47 47 46 47 45 37 31 31 31 35 35 36 38 40 39 41 42 42 42 44 45 46 46 45 43
63 66 66 64 65 68 71 70 63 60 63 64 63 65 68 56 47 43 42 42 39 36 39 49 52 54 56 55 53 46 46 46 43 35 32 35 34 35 38 37 37 38 37 39 41 42 43 44 45 45 44 43 43 40
65 66 65 67 69 67 61 57 56 57 60 62 64 63 55 47 39 41 42 38 35 34 34 39 46 49 49 46 46 45 48 42 34 34 38 33 33 41 40 38 37 36 38 39 41 42 44 44 44 43 41 42 40 37
68 66 67 66 63 58 54 54 55 57 59 63 60 54 50 45 44 43 41 39 36 35 35 34 38 48 43 43 42 48 49 36 35 35 41 30 37 39 39 38 37 37 38 39 41 43 43 43 41 40 40 39 36 36
70 65 59 55 53 53 54 54 56 58 61 62 61 56 50 46 43 43 41 37 39 39 40 40 42 50 53 54 53 46 40 42 43 43 37 37 38 38 36 35 34 36 37 39 41 41 42 40 38 38 37 34 34 35
57 52 51 54 56 56 56 56 58 61 62 59 55 46 40 37 38 40 40 39 39 42 45 44 44 45 33 32 30 22 27 38 44 33 32 34 34 37 33 32 33 34 37 38 39 40 36 35 36 35 32 31 33 32
54 53 51 51 50 49 51 53 53 54 55 45 37 35 33 32 33 38 39 40 41 42 45 50 50 48 50 47 44 43 45 42 39 34 37 31 34 32 31 32 32 34 35 38 36 33 34 35 34 32 30 31 33 29
49 46 44 42 43 42 44 44 44 44 43 39 38 38 34 32 35 38 38 37 41 43 43 43 47 46 41 41 43 54 55 51 43 37 39 32 30 28 28 28 31 32 33 32 31 32 34 32 31 30 30 31 30 27
44 41 39 34 35 42 39 40 43 43 42 37 39 39 36 33 32 31 33 39 39 33 30 26 25 30 37 40 43 44 40 47 55 50 45 44 40 35 30 29 31 31 31 31 33 34 33 32 30 29 30 29 27 24
27 26 30 35 36 38 38 44 43 39 37 33 34 36 29 31 31 33 34 30 22 23 30 35 34 36 38 38 42 47 38 38 42 44 39 36 36 32 31 32 30 31 34 35 36 34 34 31 29 28 28 27 24 23
33 30 37 42 36 37 48 46 41 36 32 29 30 35 36 35 33 33 27 23 23 28 33 35 33 27 26 32 30 32 38 36 36 40 33 33 30 29 30 30 32 32 34 34 32 32 30 27 26 26 27 25 22 21
33 41 43 44 42 46 49 44 39 31 33 28 32 33 30 32 33 33 27 24 23 28 31 31 31 34 30 29 33 31 32 35 34 33 33 30 27 30 31 30 27 27 27 29 30 27 25 24 24 25 25 23 21 21
37 41 43 43 37 36 35 31 25 21 26 29 29 30 31 28 29 23 20 26 31 31 33 31 29 30 21 24 27 27 24 24 28 27 20 26 27 27 26 26 26 27 27 26 25 24 24 23 24 24 23 22 21 21
41 42 40 36 31 32 33 25 26 26 25 28 28 26 29 28 25 23 24 23 26 25 24 31 22 21 25 23 21 19 18 20 26 28 28 27 26 26 26 27 28 29 26 24 24 24 24 24 24 24 23 22 21 21
34 31 31 33 27 24 21 21 23 25 21 19 22 24 26 29 27 26 24 24 17 18 18 15 14 13 14 14 13 15 17 18 20 23 25 25 26 29 31 32 29 26 25 24 23 24 24 24 24 24 23 22 22 22
16 25 32 27 25 22 20 19 22 24 23 23 22 21 23 22 22 24 24 19 20 19 17 17 15 16 17 16 15 16 18 19 21 23 26 29 30 29 27 24 23 24 23 23 23 24 24 25 25 24 23 23 23 22
11 17 17 15 19 20 17 21 23 19 20 23 24 23 23 23 23 22 20 19 19 18 19 19 18 17 18 21 22 22 23 24 25 27 25 20 18 18 20 23 23 23 23 23 24 25 25 26 25 24 24 24 24 23
12 13 14 13 19 22 21 18 18 19 20 20 23 23 24 23 20 19 19 20 20 20 20 20 19 19 21 22 24 24 24 24 22 18 15 17 19 21 22 23 22 23 24 25 25 26 26 26 25 24 24 24 24 25
15 16 17 17 19 18 17 19 19 17 15 14 15 18 17 16 17 18 18 17 19 21 22 23 24 25 26 26 25 21 18 17 18 19 20 22 23 23 23 25 26 26 26 26 28 28 28 27 27 26 25 25 25 26
16 14 18 19 20 18 19 19 19 17 18 20 20 18 19 20 21 23 26 27 26 25 24 23 22 20 19 18 17 17 19 21 22 23 23 24 24 24 25 25 26 28 29 30 30 30 29 29 28 27 26 26 26 26
Wind_Direction
262 263 265 265 266 267 267 267 267 268 269 269 269 270 270 270 271 272 272 271 271 271 274 274 275 276 276 278 279 280 281 283 285 287 289 289 288 286 283 285 290 294 302 304 305 303 312 311 312 311 313 314 314 315
266 266 266 266 267 267 268 269 270 270 271 273 272 272 272 271 270 270 271 272 272 273 274 274 276 278 278 279 281 283 286 286 285 288 289 288 287 285 283 284 287 292 301 303 300 301 310 309 312 310 312 313 313 317
267 268 268 269 270 270 271 272 272 272 272 272 272 273 274 275 275 275 274 274 273 274 275 276 276 277 278 279 281 282 283 284 285 288 288 286 285 286 285 286 286 291 300 299 295 303 303 307 308 310 313 312 316 316
263 270 274 277 278 277 275 274 273 273 274 275 276 276 276 275 277 277 276 276 276 276 275 276 279 280 280 280 281 283 283 283 283 285 283 282 281 282 283 283 288 298 301 294 298 304 304 307 307 310 309 308 312 315
262 270 274 278 277 277 277 277 277 276 276 277 278 280 281 282 282 283 283 284 284 284 285 284 283 283 284 285 285 285 285 285 286 285 283 278 280 279 280 286 297 300 294 290 299 301 305 305 307 307 308 309 313 316
263 266 271 275 277 280 280 278 275 273 273 275 276 280 283 285 286 286 286 288 289 288 288 288 287 288 288 288 290 289 288 285 282 286 288 288 286 275 277 292 307 287 280 295 302 303 305 305 306 308 310 313 316 318
263 268 273 274 278 282 284 282 278 274 273 276 279 282 285 285 286 287 289 289 288 288 288 289 289 291 290 287 284 285 287 287 287 286 286 288 288 287 294 304 286 283 293 298 301 305 305 304 309 311 312 312 315 321
265 267 270 272 275 282 285 283 279 277 278 279 281 283 284 285 288 290 287 287 286 287 285 285 288 289 293 292 285 282 282 283 284 279 276 282 287 292 301 299 291 294 297 302 305 306 307 309 309 308 308 311 317 324
265 266 270 273 274 281 283 281 280 281 282 283 283 284 284 285 286 288 285 283 282 283 284 286 287 289 293 292 287 280 277 277 275 278 284 285 286 293 305 293 291 293 299 302 304 304 306 308 308 308 310 312 318 326
265 268 270 274 275 279 277 278 279 279 280 281 280 281 282 283 283 281 280 281 281 280 281 285 287 290 290 288 284 280 276 274 275 276 277 279 284 295 297 291 293 294 296 297 301 303 305 308 309 309 310 315 320 326
268 269 271 272 275 275 275 278 279 279 279 280 281 280 279 279 279 279 279 281 282 281 282 284 285 287 286 283 280 278 277 277 278 277 277 280 284 292 283 287 289 292 296 298 300 305 307 307 306 308 313 316 322 325
265 267 269 272 273 275 277 279 279 280 280 279 279 278 278 278 279 278 279 280 281 283 284 286 285 280 277 274 272 271 273 275 279 279 281 283 295 285 284 286 287 291 297 301 303 304 305 305 307 308 313 317 323 324
265 268 271 272 275 278 280 280 279 279 279 279 278 278 280 281 280 282 284 288 289 289 286 281 278 268 263 265 266 270 270 273 276 278 284 292 283 277 284 285 288 292 296 299 303 305 306 308 309 311 316 318 322 324
269 271 272 275 278 279 278 279 281 281 281 280 281 279 280 282 284 290 288 288 286 281 279 277 275 268 264 270 267 267 274 273 276 279 286 293 278 286 288 288 292 293 296 301 303 304 307 307 311 313 314 319 320 323
269 271 273 275 276 277 280 280 278 275 275 272 271 275 281 284 291 293 290 291 290 293 285 271 269 265 265 269 265 266 271 277 282 291 293 284 275 287 289 289 290 290 296 301 303 306 308 309 313 314 315 317 319 320
271 272 275 276 278 279 276 273 271 270 268 268 270 276 282 283 287 282 282 283 280 281 281 273 271 272 271 267 262 265 272 270 288 293 296 290 280 285 286 289 289 292 297 300 302 305 307 309 311 313 314 316 316 317
271 274 276 275 273 269 268 269 267 264 266 268 275 280 282 281 279 274 274 271 275 278 281 265 261 281 277 275 264 267 269 270 287 279 291 281 275 281 286 288 289 294 297 300 303 305 306 307 309 311 313 314 313 314
273 272 270 267 266 267 266 264 263 267 268 272 276 282 282 277 269 262 261 268 269 272 272 269 269 254 254 256 263 270 271 275 277 276 280 287 287 286 287 288 292 294 295 298 302 303 305 307 308 310 311 310 311 312
268 266 265 267 268 265 263 260 263 269 274 277 278 278 279 275 266 263 262 262 268 268 267 268 265 269 256 255 256 258 254 263 262 277 278 284 283 283 285 288 290 292 295 299 300 302 305 306 307 309 307 307 308 310
268 267 266 264 259 257 263 267 269 271 270 274 273 272 272 271 265 258 257 259 260 262 264 265 268 276 261 257 259 264 261 249 257 279 268 273 276 277 284 285 290 294 297 297 298 302 304 304 304 304 304 305 306 309
261 261 257 256 256 258 259 257 254 258 263 266 268 268 270 276 265 258 257 258 260 261 267 276 282 274 263 271 263 262 267 267 258 260 265 263 271 280 276 284 290 292 293 295 298 299 307 308 303 300 300 301 303 304
258 251 250 247 247 247 243 246 255 260 257 264 263 261 263 271 274 262 262 265 266 273 281 290 285 270 265 261 263 261 273 265 260 258 261 254 264 269 270 285 288 289 293 293 297 299 305 305 301 297 297 298 299 300
234 232 235 242 243 237 235 243 255 259 253 258 255 255 260 278 277 269 266 268 284 289 272 273 275 267 268 258 253 258 267 248 241 243 247 253 257 262 272 278 283 288 290 291 297 298 301 295 291 293 295 297 295 296
221 231 236 237 241 232 238 245 251 249 244 257 262 264 278 276 272 259 270 276 285 285 281 274 264 273 282 276 263 257 248 240 241 238 234 241 253 260 270 278 284 288 292 294 293 292 289 286 287 291 293 293 289 292
223 232 230 236 240 233 238 247 248 251 258 258 272 274 281 274 269 269 281 290 279 290 287 284 280 271 279 271 266 254 240 240 235 233 236 239 251 265 274 279 287 291 290 291 289 285 281 282 287 289 290 288 284 288
224 228 239 245 240 236 234 240 257 265 261 267 268 266 266 266 279 289 287 284 281 286 275 279 284 269 257 266 257 247 227 230 228 231 247 251 254 265 271 276 283 285 285 292 285 278 279 282 285 287 286 282 280 284
223 236 236 233 233 241 245 244 261 262 261 260 253 260 264 267 283 291 291 286 298 292 283 270 275 246 261 266 256 240 235 235 236 239 246 256 258 262 273 280 279 278 278 275 274 276 280 283 286 285 282 277 274 278
235 244 243 234 247 245 249 252 250 250 242 237 247 261 269 271 275 279 279 290 283 261 263 260 250 254 260 254 245 240 240 240 242 244 248 256 265 273 278 279 272 268 268 269 272 275 279 283 285 283 277 273 270 273
233 233 234 232 243 236 234 240 237 243 251 255 253 259 273 273 272 277 274 277 261 265 270 272 274 265 258 260 263 265 264 263 265 266 269 270 272 266 261 257 255 258 263 268 272 277 281 284 283 277 273 270 268 269
211 208 211 223 221 216 238 243 246 251 251 246 247 265 271 275 282 276 265 268 269 267 269 274 277 276 269 265 268 268 269 268 269 272 270 265 256 251 252 255 258 260 264 269 274 278 281 282 280 275 271 268 268 268
219 205 216 236 226 229 240 251 262 266 261 254 257 262 272 273 271 266 260 272 278 277 280 282 281 281 280 278 273 271 272 271 267 259 256 262 264 263 261 259 261 265 269 273 277 279 279 279 279 276 272 269 268 268
219 221 227 227 220 230 254 263 261 261 263 268 274 276 272 267 267 262 265 269 269 269 270 273 276 278 279 278 277 273 265 258 254 256 264 269 270 267 264 262 264 267 272 276 278 278 278 279 278 278 275 271 268 267
204 225 235 243 237 257 264 255 254 259 270 276 276 273 270 268 262 257 260 270 278 281 281 278 278 275 274 272 272 272 268 264 266 271 273 274 273 272 271 272 275 277 278 278 278 277 277 277 276 276 272 268 265 264